カタログに戻る

CZ-6A R/B

運用中SSO
NORAD 54236·ROCKET BODY·🇨🇳 China

打ち上げ Nov 11, 2022 から Taiyuan Satellite Launch Center

Loading…

次のパス (今後24時間)

TLE

最新Source: Space-Track

元期: Sep 14, 2026, 10:31 UTC

1 54236U 22151B   26257.43878965  .00000088  00000-0  74526-4 0  9997
2 54236  98.8571 256.9630 0046404  91.6133 269.0353 14.09313435197213

AllMySatでCZ-6A R/Bをリアルタイム追跡

Download on the App Store